User: anonymous   Login
Location: Oronoko Observatory
(41.9167°N, 86.3833°W)
Time: 18:13:19
(UTC-04:00)
Language:

PAYLOAD A - Orbit

View from above orbital plane
View from above orbital plane
View from above satellite
View from above satellite

Ground track
Ground track

The orbit data is extracted from the following two-line orbital elements,

1 27840U 03031A   15087.01876735  .00000170  00000-0  65420-4 0  9995
2 27840 098.2136 108.9420 0099321 047.9088 041.5905 14.38787342616527
Epoch (UTC): 28 March 2015 00:27:01
Eccentricity: 0.0099321
inclination: 98.2136°
perigee height: 691 km
apogee height: 833 km
right ascension of ascending node: 108.9420°
argument of perigee: 47.9088°
revolutions per day: 14.38787342
mean anomaly at epoch: 41.5905°
orbit number at epoch: 61652

The dashed part of the orbit path shows where the satellite is in the earth's shadow,  

DLR